Content
SEND FEEDBACK

Daily
Averages
Monthly
Summary
United States of America

NEW YORK - CENTRAL PARK, NEW YORK


Home > North America > United States > New York
Elevation: 14 feet     Latitude: 40 47N     Longitude: 073 58W

WEATHER
 
SELECT A DAY
Number of Records: 153,050;   Date Range: 11/1/95 - 12/21/14
 
SHARE

PRINT THIS DATA

[ ← Previous Day ]
WEATHER ALMANAC - APRIL 28, 2013
[ Next Day → ]
[ °C ]   °F
Weather ElementAverageHighLow
Temperature58.8 °F68 °F (12:51 pm)52 °F (4:51 am)
Dewpoint32.9 °F41 °F (11:51 am)25 °F (1:51 am)
Humidity38.9 %57 % (10:51 pm)21 % (2:51 pm)
Barometer30.26 in30.31 in (8:51 am)30.21 in (6:51 pm)
Wind Speed4.3 mph11.5 mph (4:51 pm)
Wind Gust20.7 mph (4:51 pm)
Weather ElementAverage
Visibility10 mi
Wind DirectionENE (62.2 °)

Weather ElementTotal
Precipitation---
Heating Degree Days5 (Base 65)
Growing Degree Days10 (Base 50)
Averaged from 23 records on April 28, 2013
WEATHER CONDITIONS BREAKOUT
WIND DIRECTION BREAKOUT
WEATHER BY HOUR - APRIL 28, 2013
[ °C ]   °F
Local TimeTemperatureDewpointHumidityBarometerVisibilityWind DirectionWind SpeedGust SpeedPrecipitationEventsConditions
1:51 AM54.0 °F25.0 °F33 %30.30 in10.0 miCalmClear
2:51 AM55.0 °F26.1 °F33 %30.28 in10.0 miVariable3.5 mphClear
3:51 AM53.1 °F30.0 °F41 %30.28 in10.0 miCalmClear
4:51 AM52.0 °F30.9 °F45 %30.28 in10.0 miCalmClear
5:51 AM52.0 °F32.0 °F47 %30.27 in10.0 miCalmClear
6:51 AM53.1 °F36.0 °F52 %30.29 in10.0 miCalmClear
7:51 AM55.0 °F37.0 °F51 %30.30 in10.0 miNorth (360°)3.5 mphClear
8:51 AM57.9 °F37.9 °F47 %30.31 in9.0 miCalmClear
9:51 AM61.0 °F39.0 °F44 %30.30 in10.0 miVariable3.5 mphClear
10:51 AM64.0 °F37.0 °F37 %30.30 in10.0 miVariable5.8 mphClear
11:51 AM66.0 °F41.0 °F40 %30.29 in10.0 miSouth (170°)8.1 mphClear
12:51 PM68.0 °F37.9 °F33 %30.28 in10.0 miSouth (190°)8.1 mphClear
1:51 PM68.0 °F37.0 °F32 %30.27 in10.0 miVariable4.6 mph17.3 mphClear
2:51 PM66.9 °F26.1 °F21 %30.25 in10.0 miVariable6.9 mph18.4 mphClear
3:51 PM64.9 °F28.0 °F25 %30.25 in10.0 miVariable5.8 mphClear
4:51 PM62.1 °F28.0 °F28 %30.24 in10.0 miSSE (160°)11.5 mph20.7 mphClear
5:51 PM60.1 °F28.9 °F31 %30.22 in10.0 miSouth (170°)11.5 mph17.3 mphClear
6:51 PM57.9 °F28.9 °F33 %30.21 in10.0 miCalmClear
7:51 PM57.0 °F28.0 °F33 %30.22 in10.0 miSouth (190°)8.1 mph20.7 mphClear
8:51 PM55.9 °F28.9 °F36 %30.22 in10.0 miVariable3.5 mphClear
9:51 PM55.9 °F30.9 °F39 %30.23 in10.0 miVariable5.8 mphClear
10:51 PM55.9 °F41.0 °F57 %30.24 in10.0 miSouth (190°)5.8 mphClear
11:51 PM55.9 °F41.0 °F57 %30.24 in10.0 miVariable3.5 mphClear
Hourly data recorded from KNYC, located miles away from New York - Central Park, New York







STORIES FROM OUR PARTNERS